Weather History for Boscobel, WI

Change the Weather History Date:

Thursday, February 14, 2013

  Actual Average (KPDC) Record (KPDC)
Temperature  
Mean Temperature 32 °F -  
Max Temperature 37 °F 34 °F 62 °F (1954)
Min Temperature 25 °F 15 °F -20 °F (1951)
Degree Days  
Heating Degree Days 32    
Moisture  
Dew Point 26 °F    
Average Humidity 72    
Maximum Humidity 93    
Minimum Humidity 54    
Precipitation  
Precipitation 0.01 in - - ()
Sea Level Pressure  
Sea Level Pressure 29.80 in    
Wind  
Wind Speed 8 mph (WNW)    
Max Wind Speed 17 mph    
Max Gust Speed 26 mph    
Visibility 9 miles    
Events Rain , Snow    
Averages and records for this station are not official NWS values.
T = Trace of Precipitation, MM = Missing Value Source: NWS Daily Summary

Daily Weather History Graph

Daily Weather History Graph

Search for Another Location

Airport:

Trip Planner

Search our weather history database for the weather conditions in past years. The results will help you decide how hot, cold, wet, or windy it might be!

Date:

Astronomy

Feb. 14, 2013 Rise Set
Actual Time 7:01 AM CST 5:32 PM CST
Civil Twilight 6:32 AM CST 6:02 PM CST
Nautical Twilight 5:58 AM CST 6:35 PM CST
Astronomical Twilight 5:25 AM CST 7:08 PM CST
Moon 8:54 AM CST (2/14) 10:45 PM CST (2/14)
Length of Visible Light 11h 29m
Length of Day
10h 31m
Waxing Crescent, 22% of the Moon is Illuminated
Feb 14
Waxing Crescent
Feb 17
First Quarter
Feb 25
Full
Mar 4
Last Quarter
Mar 11
New

Hourly Weather History & Observations

Time (CST) Temp. Windchill Dew Point Humidity Pressure Visibility Wind Dir Wind Speed Gust Speed Precip Events Conditions
12:53 AM 37.0 °F 34.5 °F 32.0 °F 82% 29.62 in 10.0 mi SSW 3.5 mph - N/A   Overcast
1:53 AM 36.0 °F 33.3 °F 30.9 °F 82% 29.60 in 10.0 mi SW 3.5 mph - N/A   Scattered Clouds
2:53 AM 35.1 °F 31.0 °F 30.0 °F 82% 29.60 in 10.0 mi SSW 4.6 mph - N/A   Mostly Cloudy
3:53 AM 36.0 °F 29.6 °F 30.9 °F 82% 29.59 in 10.0 mi SW 8.1 mph - N/A   Overcast
4:24 AM 37.4 °F 31.4 °F 30.2 °F 75% 29.57 in 10.0 mi SW 8.1 mph - N/A   Overcast
4:53 AM 37.0 °F 31.0 °F 32.0 °F 82% 29.60 in 10.0 mi WSW 8.1 mph - N/A   Overcast
5:53 AM 37.0 °F 30.4 °F 32.0 °F 82% 29.62 in 6.0 mi West 9.2 mph 17.3 mph 0.00 in   Overcast
6:53 AM 36.0 °F 29.6 °F 33.1 °F 89% 29.64 in 10.0 mi WSW 8.1 mph - 0.00 in   Overcast
7:23 AM 35.6 °F 29.9 °F 33.8 °F 93% 29.63 in 10.0 mi WSW 6.9 mph - 0.00 in Rain Light Rain
7:53 AM 36.0 °F 29.0 °F 32.0 °F 86% 29.68 in 10.0 mi WNW 9.2 mph 17.3 mph 0.00 in   Overcast
8:14 AM 35.6 °F 27.5 °F 30.2 °F 81% 29.68 in 7.0 mi NW 11.5 mph 18.4 mph 0.01 in   Overcast
8:53 AM 35.1 °F 27.9 °F 30.0 °F 82% 29.74 in 10.0 mi NNW 9.2 mph 26.5 mph 0.01 in   Overcast
9:53 AM 36.0 °F 26.0 °F 27.0 °F 70% 29.77 in 10.0 mi NNW 17.3 mph 21.9 mph 0.00 in Rain Light Rain
10:19 AM 35.6 °F 26.6 °F 26.6 °F 70% 29.76 in 10.0 mi NW 13.8 mph 18.4 mph 0.00 in   Mostly Cloudy
10:53 AM 36.0 °F 27.1 °F 24.1 °F 62% 29.80 in 10.0 mi WNW 13.8 mph 20.7 mph 0.00 in   Scattered Clouds
11:53 AM 37.0 °F 29.3 °F 23.0 °F 57% 29.83 in 10.0 mi NW 11.5 mph 17.3 mph 0.00 in   Mostly Cloudy
12:53 PM 37.0 °F 27.7 °F 21.9 °F 54% 29.85 in 10.0 mi NNW 16.1 mph 23.0 mph 0.00 in   Overcast
1:53 PM 36.0 °F 27.1 °F 21.9 °F 57% 29.86 in 10.0 mi WNW 13.8 mph 19.6 mph 0.00 in   Overcast
2:53 PM 37.0 °F 31.0 °F 23.0 °F 57% 29.88 in 10.0 mi NW 8.1 mph 18.4 mph 0.00 in   Overcast
3:53 PM 36.0 °F 27.5 °F 23.0 °F 59% 29.91 in 10.0 mi West 12.7 mph 16.1 mph N/A   Mostly Cloudy
4:53 PM 35.1 °F 30.1 °F 24.1 °F 64% 29.94 in 10.0 mi West 5.8 mph - N/A   Overcast
5:53 PM 34.0 °F 26.6 °F 24.1 °F 67% 29.96 in 10.0 mi WNW 9.2 mph - N/A   Overcast
6:53 PM 33.1 °F 28.7 °F 25.0 °F 72% 29.99 in 10.0 mi West 4.6 mph - N/A   Overcast
7:53 PM 30.0 °F 26.5 °F 24.1 °F 79% 30.00 in 10.0 mi SW 3.5 mph - N/A   Mostly Cloudy
8:39 PM 32.0 °F 27.5 °F 24.8 °F 75% 29.99 in 2.5 mi NW 4.6 mph - 0.00 in Snow Light Snow
8:53 PM 32.0 °F 25.6 °F 25.0 °F 75% 30.02 in 6.0 mi WNW 6.9 mph - 0.00 in Snow Light Snow
9:53 PM 30.0 °F 21.7 °F 19.0 °F 64% 30.04 in 10.0 mi NNW 9.2 mph 19.6 mph 0.00 in   Mostly Cloudy
10:53 PM 28.0 °F 16.1 °F 14.0 °F 56% 30.07 in 10.0 mi NNW 16.1 mph 25.3 mph 0.00 in   Partly Cloudy
11:53 PM 25.0 °F 12.6 °F 12.0 °F 58% 30.10 in 10.0 mi NNW 15.0 mph 19.6 mph 0.00 in   Clear